Regional Weather Roundup
Issued by NWS Midland/Odessa, TX

Skip options and go directly to product.
Home | Oldest Version | Next Version | Current Version | All | Text Only | Save Text | Print | Product List | Glossary On

Skip product version selection by date and time.   
966
ASUS44 KMAF 260810
RWRMAF
MIDLAND AREA WEATHER ROUNDUP
NATIONAL WEATHER SERVICE MIDLAND TX
300 AM CDT MON SEP 26 2016

...IN SOUTHWEST TEXAS AND SOUTHEAST NEW MEXICO...

CITY           SKY/WX    TMP DP  RH WIND       PRES   REMARKS
ALPINE         CLOUDY    56  55  98 NE9       30.31S
ANDREWS        CLOUDY    58  53  83 NE9       30.28S
ARTESIA        MOCLDY    59  46  63 NW10      30.35S
BIG SPRING     CLOUDY    60  52  75 N13       30.26F
CARLSBAD       CLOUDY    61  50  67 N7        30.30F
DRYDEN           N/A     64  63  96 N13       30.13S
FORT STOCKTON  CLOUDY    58  58 100 N14       30.23S
GUAD PASS      CLOUDY    53  45  74 NE45G53   30.27F
HOBBS          CLOUDY    59  43  55 NE14      30.32S
MARFA          CLOUDY   N/A N/A N/A NE10      30.27F
MIDLAND AIRPK  CLOUDY    61  50  67 NE13G20   30.26S
MIDLAND INTL   CLOUDY    61  50  67 NE14G24   30.25S
ODESSA         CLOUDY    61  49  64 NE15      30.26S
PECOS          RAIN      59  57  94 N7        30.22S
PRESIDIO       CLOUDY    67  60  79 N7        30.15S
SEMINOLE       CLOUDY    56  50  78 NE13      30.32S
SNYDER           N/A     60  51  71 NE7       30.25S
WINK           CLOUDY    61  53  75 NE12      30.24F
$$
...OTHER STATIONS IN TEXAS...

CITY           SKY/WX    TMP DP  RH WIND       PRES   REMARKS
ABILENE        CLOUDY    60  58  92 N13       30.21S
AMARILLO       LGT RAIN  50  42  74 NW3       30.38R
AUSTIN         CLOUDY    74  72  93 N9        30.04F
BROWNSVILLE    MOCLDY    79  74  84 CALM      29.93R
CORPUS CHRISTI TSTM      76  74  93 SW8       30.01R
DALLAS FTW     CLOUDY    70  63  78 N16       30.11R
DEL RIO        LGT RAIN  70  70 100 N9        30.03F
EL PASO        CLOUDY    64  41  42 NE10      30.27S
HOUSTON INT    MOCLDY    74  72  93 N3        30.02S
LUBBOCK        CLOUDY    60  47  61 NE10      30.32S
SAN ANGELO     CLOUDY    64  62  93 N10       30.16S
SAN ANTONIO    LGT RAIN  73  70  90 NE3       30.03F
WACO           CLOUDY    74  73  97 NE7       30.07F
WICHITA FALLS  NOT AVBL
$$
...OTHER LOCATIONS IN NEW MEXICO...

CITY           SKY/WX    TMP DP  RH WIND       PRES   REMARKS
ALAMAGORDO     PTCLDY    64  39  39 SE6       30.27S
ALBUQUERQUE    CLEAR     58  34  40 E16       30.42S
CANNON AFB     CLEAR     49  42  75 NE9       30.39S
CLOVIS         CLEAR     46  37  71 N9        30.39S
HOLLOMAN AFB   CLOUDY    69  36  30 E12       30.25S
ROSWELL        CLOUDY    60  43  53 N5        30.36S
RUIDOSO        CLOUDY    48  39  71 SE7       30.49S
SANTA FE       CLEAR     50  33  52 S8        30.47R
TRUTH OR CONSE CLOUDY    62  39  42 N8        30.33R
TUCUMCARI      CLEAR     48  33  56 NW6       30.40S
$$

USA.gov is the U.S. government's official web portal to all federal, state and local government web resources and services.